Weather in Kulevka

Russia / Kursk Oblast     51°33′43″N   38°11′17″E
temp.,
°C
wind,
m/s
gust,
m/s
humid.,
%
clouds,
%
prec.,
mm/h
press.,
hPa
HPBL,
m
28 september, tue
tue2800:00+9n4986100 0.3 1020439
03:00+8n4890100 0.4 1021392
06:00+8n489298 0.0 1022423
09:00+8ne4888100 0.6 1023639
12:00+8ne6676100 0.2 1025878
15:00+8ne5777100 0.3 1026768
18:00+7ne5784100 0.1 1028887
21:00+7ne4883100 0.1 1029759
29 september, wed
wed2900:00+6ne4781100 0.0 1031531
03:00+6ne478099 0.0 1031493
06:00+3ne48874 0.0 1033181
09:00+6ne57685 0.0 1033487
12:00+10ne564898 0.0 10331104
15:00+11ne55425 0.0 10321278
18:00+8nne35551 0.0 103284
21:00+6ne35643 0.0 103387
30 september, thu
thu3000:00+5ne3368100 0.0 103449
03:00+4ne237052 0.0 103440
06:00+3nne337553 0.0 103538
09:00+7ne34605 0.0 1035317
12:00+11ene34463 0.0 10351119
15:00+12ne33445 0.0 10341406
18:00+9ne33575 0.0 103427
21:00+7ne22645 0.0 103525
1 october, fri
fri100:00+6ene22685 0.0 103514
03:00+5ne22725 0.0 103611
06:00+5ne227513 0.0 103611
09:00+9ene22615 0.0 1036240
12:00+12e22485 0.0 10361085
15:00+13ene22445 0.0 10351281
18:00+11ene22555 0.0 103413
21:00+9e22614 0.0 103512
2 october, sat
sat200:00+8se11635 0.0 103510
03:00+7e11675 0.0 103510
06:00+6e11715 0.0 103510
09:00+10e22625 0.0 1035213
12:00+14se23505 0.0 10341072
15:00+15se334737 0.0 10331466
18:00+13se345399 0.0 103366
21:00+12se376491 0.0 1033244